EW0482 Weather Reports


Display with metric or nautical units.
time (UTC)temp
F
wind
direction
speed
MPH
gust
MPH
rain 1hr
in
rain 24hr
in
rain mn
in
humidity
%
barometer
mb
20260902174533 77 108 0.0 3.0 0.00 0.00 0.00 61 1005.4
20260902173034 77 130 0.0 2.0 0.00 0.00 0.00 63 1005.5
20260902171526 76 185 0.0 2.0 0.00 0.00 0.00 64 1005.4
20260902170021 76 19 0.0 2.0 0.00 0.00 0.00 68 1005.3
20260902164517 75 113 0.0 1.0 0.00 0.00 0.00 70 1005.2
20260902163017 74 109 0.0 2.0 0.00 0.00 0.00 70 1005.2
20260902161532 74 246 0.0 1.0 0.00 0.00 0.00 72 1005.2
20260902160011 73 245 0.0 1.0 0.00 0.00 0.00 73 1005.3
20260902154510 72 248 0.0 0.0 0.00 0.00 0.00 75 1005.2
20260902153006 71 248 0.0 1.0 0.00 0.00 0.00 77 1005.1
20260902151508 70 248 0.0 1.0 0.00 0.00 0.00 77 1005.1
20260902150001 70 249 0.0 1.0 0.00 0.00 0.00 78 1005.1
20260902144603 68 248 0.0 0.0 0.00 0.00 0.00 82 1005.1
20260902143056 66 249 0.0 0.0 0.00 0.00 0.00 85 1005.1
20260902141549 63 248 0.0 0.0 0.00 0.00 0.00 85 1004.8
20260902140051 62 248 0.0 0.0 0.00 0.00 0.00 85 1004.6
20260902134548 62 248 0.0 0.0 0.00 0.00 0.00 85 1004.5
20260902133047 62 248 0.0 0.0 0.00 0.00 0.00 86 1004.3
20260902131547 62 248 0.0 1.0 0.00 0.00 0.00 86 1004.3
20260902130045 61 248 0.0 1.0 0.00 0.00 0.00 86 1004.3
20260902124545 62 248 0.0 0.0 0.00 0.00 0.00 86 1004.4
20260902123045 62 248 0.0 0.0 0.00 0.00 0.00 86 1004.5
20260902121544 62 248 0.0 0.0 0.00 0.00 0.00 86 1004.5
20260902120046 62 248 0.0 0.0 0.00 0.00 0.00 86 1004.5
20260902114605 62 248 0.0 0.0 0.00 0.00 0.00 86 1004.6
20260902113053 62 248 0.0 0.0 0.00 0.00 0.00 86 1004.5
20260902111551 62 248 0.0 0.0 0.00 0.00 0.00 86 1004.6
20260902110041 62 248 0.0 0.0 0.00 0.00 0.00 86 1004.6
20260902104541 62 248 0.0 0.0 0.00 0.00 0.00 86 1004.6
20260902103039 62 248 0.0 0.0 0.00 0.00 0.00 86 1004.6
20260902101538 62 248 0.0 0.0 0.00 0.00 0.00 86 1004.6
20260902100037 62 248 0.0 0.0 0.00 0.00 0.00 86 1004.6
20260902094537 62 248 0.0 0.0 0.00 0.00 0.00 86 1004.7
20260902093036 62 248 0.0 0.0 0.00 0.00 0.00 86 1004.7
20260902091546 62 248 0.0 0.0 0.00 0.00 0.00 86 1004.7
20260902090042 62 248 0.0 0.0 0.00 0.00 0.00 86 1004.7
20260902084534 62 248 0.0 0.0 0.00 0.00 0.00 86 1004.7
20260902083033 62 248 0.0 0.0 0.00 0.00 0.00 86 1004.8
20260902081539 63 248 0.0 0.0 0.00 0.00 0.00 86 1004.8
20260902080030 63 248 0.0 0.0 0.00 0.00 0.00 85 1004.7
20260902074540 63 248 0.0 0.0 0.00 0.00 0.00 85 1004.7
20260902073027 63 248 0.0 0.0 0.00 0.00 0.00 85 1004.6
20260902071525 64 248 0.0 0.0 0.00 0.00 0.00 84 1004.4
20260902070021 64 248 0.0 0.0 0.00 0.00 0.00 84 1004.3
20260902064530 65 248 0.0 0.0 0.00 0.00 0.00 83 1004.2
20260902063023 65 248 0.0 0.0 0.00 0.00 0.00 83 1004.2
20260902061536 65 248 0.0 0.0 0.00 0.00 0.00 83 1004.2
20260902060020 66 248 0.0 0.0 0.00 0.00 0.00 82 1004.1
20260902054534 66 248 0.0 0.0 0.00 0.00 0.00 81 1004.0
20260902053023 66 248 0.0 0.0 0.00 0.00 0.00 81 1004.1
20260902051520 66 248 0.0 0.0 0.00 0.00 0.00 80 1003.9
20260902050018 66 248 0.0 0.0 0.00 0.00 0.00 80 1004.0
20260902044517 67 248 0.0 0.0 0.00 0.00 0.00 79 1003.9
20260902043017 67 248 0.0 0.0 0.00 0.00 0.00 78 1003.7
20260902041517 68 248 0.0 0.0 0.00 0.00 0.00 78 1003.6
20260902040015 68 248 0.0 0.0 0.00 0.00 0.00 78 1003.4
20260902034522 68 248 0.0 0.0 0.00 0.00 0.00 76 1003.0
20260902033014 69 248 0.0 3.0 0.00 0.00 0.00 74 1002.9
20260902031517 70 244 0.0 5.0 0.00 0.00 0.00 75 1002.8
20260902030013 70 246 0.0 4.0 0.00 0.00 0.00 75 1002.9
20260902024512 70 231 0.0 4.0 0.00 0.00 0.00 74 1002.8
20260902023013 70 243 0.0 3.0 0.00 0.00 0.00 75 1002.5
20260902021512 70 248 0.0 6.0 0.00 0.00 0.00 75 1002.5
20260902020011 71 224 0.0 5.0 0.00 0.00 0.00 75 1002.5
20260902014511 72 236 1.0 6.0 0.00 0.00 0.00 75 1002.6
20260902013013 72 159 0.0 2.0 0.00 0.00 0.00 74 1002.6
20260902011511 73 171 1.0 7.0 0.00 0.00 0.00 74 1002.7
20260902010016 73 235 0.0 5.0 0.00 0.00 0.00 73 1002.8
20260902004506 74 241 2.0 8.0 0.00 0.00 0.00 70 1002.8
20260902003005 75 146 1.0 4.0 0.00 0.00 0.00 68 1002.8
20260902001506 75 182 0.0 4.0 0.00 0.00 0.00 65 1003.0
20260902000008 76 230 0.0 7.0 0.00 0.00 0.00 64 1003.0
20260901234502 76 238 1.0 9.0 0.00 0.00 0.00 66 1003.0
20260901233002 76 234 0.0 3.0 0.00 0.00 0.00 65 1003.0
20260901231502 76 240 3.0 8.0 0.00 0.00 0.00 64 1003.1
20260901230001 76 262 2.0 8.0 0.00 0.00 0.00 66 1003.2
20260901224604 76 227 2.0 10.0 0.00 0.00 0.00 65 1003.2
20260901223100 76 240 3.0 14.0 0.00 0.00 0.00 65 1003.3
20260901221604 76 251 2.0 8.0 0.00 0.00 0.00 67 1003.3
20260901220116 77 227 5.0 11.0 0.00 0.00 0.00 66 1003.5
20260901214558 76 175 1.0 7.0 0.00 0.00 0.00 67 1003.6
20260901213107 76 244 1.0 8.0 0.00 0.00 0.00 67 1003.6
20260901211558 76 213 0.0 10.0 0.00 0.00 0.00 68 1003.7
20260901210057 76 246 4.0 9.0 0.00 0.00 0.00 67 1003.8
20260901204556 77 249 3.0 8.0 0.00 0.00 0.00 66 1004.0
20260901203056 77 227 0.0 6.0 0.00 0.00 0.00 65 1004.1
20260901201601 78 259 1.0 6.0 0.00 0.00 0.00 65 1004.2
20260901200055 78 261 0.0 4.0 0.00 0.00 0.00 64 1004.4
20260901194602 78 259 3.0 8.0 0.00 0.00 0.00 64 1004.5
20260901193105 79 250 0.0 6.0 0.00 0.00 0.00 65 1004.5
20260901191554 80 259 1.0 6.0 0.00 0.00 0.00 62 1004.6
20260901190052 80 238 0.0 4.0 0.00 0.00 0.00 61 1004.6
20260901184557 80 232 0.0 5.0 0.00 0.00 0.00 64 1004.7
20260901183049 80 182 0.0 2.0 0.00 0.00 0.00 64 1004.7
20260901181547 79 248 0.0 4.0 0.00 0.00 0.00 65 1004.8
20260901180043 78 253 0.0 4.0 0.00 0.00 0.00 66 1004.8